This demonstration page uses our WeatherBlox Daily Observations layout. Learn more.

Left ArrowRight Arrow

Hourly Observations for September 6, 2021

Temp ( °F °C ) Dew Point ( °F °C ) Humidity (%) Winds ( mph kmh ) Pressure ( in mb ) Visibility ( mi km ) Precip ( " mm )
12:51 am 00:51 Clear 70 21.1 66 18.9 87 87 SE 3 6 29.91 1013 10 16 N/A
1:51 am 01:51 Clear 69 20.6 64 17.8 84 84 E 6 9 29.91 1013 10 16 N/A
2:51 am 02:51 Clear 69 20.6 64 17.8 84 84 E 7 11 29.91 1013 10 16 N/A
3:51 am 03:51 Clear 69 20.6 63 17.2 81 81 E 5 7 29.95 1014 10 16 N/A
4:51 am 04:51 Clear 68 20 61 16.1 78 78 E 3 6 29.95 1014 10 16 N/A
5:51 am 05:51 Clear 66 18.9 63 17.2 90 90 SSW 6 9 29.97 1015 10 16 N/A
6:51 am 06:51 Sunny 69 20.6 61 16.1 76 76 ESE 5 7 29.99 1016 10 16 N/A
7:51 am 07:51 Sunny 74 23.3 61 16.1 64 64 SSE 8 13 29.98 1015 10 16 N/A
8:51 am 08:51 Sunny 79 26.1 61 16.1 54 54 ESE 10 17 29.98 1015 10 16 N/A
9:51 am 09:51 Sunny 83 28.3 60 15.6 46 46 ESE 7 11 29.98 1015 10 16 N/A
10:51 am 10:51 Sunny 85 29.4 61 16.1 45 45 ESE 6 9 29.96 1015 10 16 N/A
11:51 am 11:51 Sunny 89 31.7 62 16.7 41 41 VRB 6 9 29.93 1014 10 16 N/A
12:51 pm 12:51 Sunny 90 32.2 63 17.2 41 41 N N/A 29.91 1013 10 16 N/A
1:51 pm 13:51 Sunny 91 32.8 63 17.2 39 39 VRB 3 6 29.87 1012 10 16 N/A
2:51 pm 14:51 Sunny 92 33.3 62 16.7 37 37 WSW 6 9 29.84 1011 10 16 N/A
3:51 pm 15:51 Sunny 93 33.9 59 15 32 32 NNW 3 6 29.81 1010 10 16 N/A
4:51 pm 16:51 Sunny 93 33.9 60 15.6 33 33 W 5 7 29.80 1009 10 16 N/A
5:51 pm 17:51 Sunny 91 32.8 61 16.1 37 37 NW 7 11 29.80 1009 10 16 N/A
6:51 pm 18:51 Clear 85 29.4 67 19.4 55 55 W 5 7 29.81 1009 10 16 N/A
7:51 pm 19:51 Clear 81 27.2 70 21.1 69 69 N 3 6 29.83 1010 10 16 N/A
8:51 pm 20:51 Clear 79 26.1 68 20 69 69 N 6 9 29.84 1011 10 16 N/A
9:51 pm 21:51 Clear 77 25 68 20 74 74 N N/A 29.85 1011 10 16 N/A
10:51 pm 22:51 Clear 78 25.6 66 18.9 67 67 N N/A 29.84 1011 10 16 N/A
11:51 pm 23:51 Clear 74 23.3 69 20.6 85 85 ESE 3 6 29.84 1011 10 16 N/A

Powered by AerisWeather